Weather History for Tel Aviv, Israel

Change the Weather History Date:

Wednesday, June 26, 2013

  Actual Average Record
Temperature  
Mean Temperature 80 °F -  
Max Temperature 88 °F 86 °F 91 °F (2007)
Min Temperature 73 °F 71 °F 68 °F (1999)
Cooling Degree Days 16    
Growing Degree Days 30 (Base 50)    
Moisture  
Dew Point 67 °F    
Average Humidity 64    
Maximum Humidity 83    
Minimum Humidity 46    
Precipitation  
Precipitation 0.00 in - - ()
Sea Level Pressure  
Sea Level Pressure 29.80 in    
Wind  
Wind Speed 6 mph ()    
Max Wind Speed 14 mph    
Max Gust Speed -    
Visibility 6.2 miles    
Events      
Averages and records for this station are not official NWS values.
T = Trace of Precipitation, MM = Missing Value Source: Averaged Metar Reports

Daily Weather History Graph

Daily Weather History Graph

Search for Another Location

Airport:

Trip Planner

Search our weather history database for the weather conditions in past years. The results will help you decide how hot, cold, wet, or windy it might be!

Date:

Astronomy

Jun. 26, 2013 Rise Set
Actual Time 5:36 AM IDT 7:50 PM IDT
Civil Twilight 5:07 AM IDT 8:18 PM IDT
Nautical Twilight 4:33 AM IDT 8:53 PM IDT
Astronomical Twilight 3:55 AM IDT 9:30 PM IDT
Moon 10:15 PM IDT (6/26) 8:51 AM IDT (6/26)
Length of Visible Light 15h 10m
Length of Day
14h 14m
Waning Gibbous, 88% of the Moon is Illuminated
Jun 26
Waning Gibbous
Jun 30
Last Quarter
Jul 8
New
Jul 16
First Quarter
Jul 22
Full

Hourly Weather History & Observations

Time (IDT) Temp. Heat Index Dew Point Humidity Pressure Visibility Wind Dir Wind Speed Gust Speed Precip Events Conditions
12:20 AM 77.0 °F - 69.8 °F 78% 29.80 in 6.2 mi SSE 4.6 mph - N/A   Partly Cloudy
12:50 AM 77.0 °F - 69.8 °F 78% 29.80 in 6.2 mi SSE 4.6 mph - N/A   Partly Cloudy
1:20 AM 77.0 °F - 68.0 °F 74% 29.80 in - Variable 3.5 mph - N/A   Clear
1:50 AM 75.2 °F - 68.0 °F 78% 29.80 in 6.2 mi Variable 3.5 mph - N/A   Partly Cloudy
2:20 AM 75.2 °F - 68.0 °F 78% 29.80 in 6.2 mi SSE 5.8 mph - N/A   Mostly Cloudy
2:50 AM 75.2 °F - 68.0 °F 78% 29.77 in 6.2 mi SSE 5.8 mph - N/A   Scattered Clouds
3:00 AM 75 °F - 67 °F 70% 29.79 in 6 mi SSE 5.8 mph - -   Partly Cloudy
3:20 AM 75.2 °F - 66.2 °F 73% 29.77 in 6.2 mi SSE 5.8 mph - N/A   Partly Cloudy
3:50 AM 75.2 °F - 66.2 °F 73% 29.77 in 6.2 mi SSE 6.9 mph - N/A   Scattered Clouds
4:20 AM 75.2 °F - 66.2 °F 73% 29.77 in 6.2 mi South 6.9 mph - N/A   Scattered Clouds
4:50 AM 73.4 °F - 66.2 °F 78% 29.80 in 6.2 mi SSE 6.9 mph - N/A   Mostly Cloudy
5:20 AM 73.4 °F - 66.2 °F 78% 29.80 in 6.2 mi SE 8.1 mph - N/A   Scattered Clouds
5:50 AM 73.4 °F - 68.0 °F 83% 29.80 in 6.2 mi SSE 6.9 mph - N/A   Scattered Clouds
6:20 AM 73.4 °F - 68.0 °F 83% 29.80 in 6.2 mi SSE 8.1 mph - N/A   Partly Cloudy
6:50 AM 73.4 °F - 66.2 °F 78% 29.80 in 6.2 mi SSE 6.9 mph - N/A   Scattered Clouds
7:20 AM 75.2 °F - 66.2 °F 73% 29.80 in 6.2 mi SSE 9.2 mph - N/A   Scattered Clouds
7:50 AM 77.0 °F - 68.0 °F 74% 29.80 in 6.2 mi SSE 8.1 mph - N/A   Scattered Clouds
8:20 AM 78.8 °F - 68.0 °F 69% 29.80 in 6.2 mi SSE 6.9 mph - N/A   Partly Cloudy
8:50 AM 78.8 °F - 68.0 °F 69% 29.80 in 6.2 mi South 5.8 mph - N/A   Scattered Clouds
9:00 AM 79 °F - 68 °F 61% 29.82 in 6 mi South 5.8 mph - -   Partly Cloudy
9:20 AM 80.6 °F 83.2 °F 68.0 °F 65% 29.80 in 6.2 mi SSE 6.9 mph - N/A   Scattered Clouds
9:50 AM 82.4 °F 85.4 °F 68.0 °F 62% 29.80 in 6.2 mi South 5.8 mph - N/A   Partly Cloudy
10:20 AM 84.2 °F 87.3 °F 68.0 °F 58% 29.80 in - SW 5.8 mph - N/A   Clear
10:50 AM 86.0 °F 88.2 °F 66.2 °F 51% 29.80 in - SW 5.8 mph - N/A   Clear
11:20 AM 86.0 °F 89.4 °F 68.0 °F 55% 29.80 in - West 10.4 mph - N/A   Clear
11:50 AM 87.8 °F 91.4 °F 68.0 °F 52% 29.80 in - West 11.5 mph - N/A   Clear
12:20 PM 86.0 °F 89.4 °F 68.0 °F 55% 29.80 in - West 11.5 mph - N/A   Clear
12:50 PM 86.0 °F 89.4 °F 68.0 °F 55% 29.80 in - West 11.5 mph - N/A   Clear
1:20 PM 86.0 °F 89.4 °F 68.0 °F 55% 29.80 in - WNW 11.5 mph - N/A   Clear
1:50 PM 87.8 °F 91.4 °F 68.0 °F 52% 29.80 in - West 10.4 mph - N/A   Clear
2:20 PM 86.0 °F 89.4 °F 68.0 °F 55% 29.80 in - WNW 12.7 mph - N/A   Clear
2:50 PM 87.8 °F 91.4 °F 68.0 °F 52% 29.80 in - WNW 12.7 mph - N/A   Clear
3:00 PM 86 °F - 68 °F 46% 29.81 in 6 mi WNW 12.7 mph - -  
3:20 PM 86.0 °F 89.4 °F 68.0 °F 55% 29.80 in - WNW 13.8 mph - N/A   Clear
3:50 PM 86.0 °F 89.4 °F 68.0 °F 55% 29.80 in - West 11.5 mph - N/A   Clear
4:20 PM 86.0 °F 89.4 °F 68.0 °F 55% 29.80 in 6.2 mi WNW 9.2 mph - N/A   Partly Cloudy
4:50 PM 86.0 °F 89.4 °F 68.0 °F 55% 29.80 in 6.2 mi WNW 9.2 mph - N/A   Partly Cloudy
5:20 PM 86.0 °F 89.4 °F 68.0 °F 55% 29.80 in 6.2 mi WNW 9.2 mph - N/A   Partly Cloudy
5:50 PM 86.0 °F 89.4 °F 68.0 °F 55% 29.80 in 6.2 mi NW 10.4 mph - N/A   Partly Cloudy
6:20 PM 84.2 °F 86.6 °F 66.2 °F 55% 29.80 in 6.2 mi WNW 8.1 mph - N/A   Partly Cloudy
6:50 PM 84.2 °F 86.6 °F 66.2 °F 55% 29.80 in 6.2 mi NW 6.9 mph - N/A   Partly Cloudy
7:20 PM 84.2 °F 85.6 °F 64.4 °F 51% 29.80 in - WNW 8.1 mph - N/A   Clear
7:50 PM 82.4 °F 83.9 °F 64.4 °F 54% 29.80 in - NNW 4.6 mph - N/A   Clear
8:20 PM 82.4 °F 84.6 °F 66.2 °F 58% 29.80 in - NNW 5.8 mph - N/A   Clear
8:50 PM 82.4 °F 83.9 °F 64.4 °F 54% 29.80 in - North 4.6 mph - N/A   Clear
9:00 PM 82 °F - 64 °F 46% 29.82 in 6 mi NNW 4.6 mph - -  
9:20 PM 80.6 °F 82.7 °F 66.2 °F 61% 29.80 in - WNW 5.8 mph - N/A   Clear
9:50 PM 80.6 °F 83.2 °F 68.0 °F 65% 29.83 in - WNW 6.9 mph - N/A   Clear
10:20 PM 78.8 °F - 68.0 °F 69% 29.83 in - WNW 6.9 mph - N/A   Clear
10:50 PM 78.8 °F - 68.0 °F 69% 29.83 in - NW 6.9 mph - N/A   Clear
11:20 PM 78.8 °F - 69.8 °F 74% 29.83 in - Variable 2.3 mph - N/A   Clear
11:50 PM 78.8 °F - 68.0 °F 69% 29.83 in - Variable 2.3 mph - N/A   Clear